[[{"header":{"parameterUnit":"m.s-1","parameterCategory":1,"la1":30.2991,"la2":30.254,"lo1":-89.0895,"lo2":-89.0444,"dy":0.0017,"dx":0.0017,"nx":28,"ny":28,"refTime":"2023-08-13T09:00:00:Z","depth":0,"parameterNumber":2,"parameterNumberName":"U-component_of_WINDS"},"data":[0,0,0,0,0,0,0,0,0,0,0,0,0,0,0,0,0,0,0,0,0,0,0,0,0,0,0,0,0,0,0,0,0,0,0,0,0,0,0,0,0,0,0,0,0,0,0,0,0,0,0,0,0,0,0,0,0,0,1.3578,1.3578,0,1.363,1.363,1.3631,1.3623,1.3622,1.3621,1.3621,1.3679,1.3681,1.3684,0,0,0,0,0,0,0,0,0,0,0,0,0,1.3478,1.3479,1.3578,1.3578,1.3579,1.3629,1.363,1.3631,1.3623,1.3622,1.3621,1.362,1.3678,1.3681,1.3684,0,0,0,0,0,0,0,0,0,0,0,0,0,1.3525,1.348,1.3577,1.3581,1.3582,1.3629,1.363,1.3631,1.3624,1.3622,1.3621,1.362,1.3677,1.3681,1.3684,1.3733,0,0,1.3695,1.3697,0,0,0,0,0,0,0,0,1.3522,1.3528,1.358,1.3581,1.3582,1.3618,1.3616,1.3665,1.3624,1.3608,1.3621,1.3619,1.366,1.3665,1.3678,1.3736,1.3738,1.3695,1.3698,1.3699,1.37,0,0,0,0,0,0,0,1.3519,1.3526,1.3598,1.3581,1.3582,1.3582,1.3587,1.3626,1.3641,1.3609,1.3609,1.3615,1.3661,1.3675,1.3679,1.3739,1.3695,1.3699,1.3701,1.3702,1.3842,1.3843,0,0,0,0,0,0,1.3514,1.3523,1.3597,1.36,1.3548,1.3585,1.3591,1.3608,1.3641,1.3644,1.3616,1.3614,1.3669,1.3675,1.3681,1.3742,1.3699,1.3703,1.3705,1.384,1.3842,1.3844,0,0,0,0,0,0,1.3511,1.352,1.3595,1.3561,1.3571,1.3588,1.3608,1.361,1.3624,1.3646,1.3649,1.3627,1.3668,1.3676,1.372,1.3744,1.3704,1.3707,1.3838,1.3841,1.3843,1.3862,0,0,0,0,0,0,1.3509,1.3519,1.3537,1.3562,1.3573,1.3631,1.3609,1.3612,1.3629,1.3628,1.3657,1.366,1.3668,1.3715,1.3724,1.3748,1.371,1.3836,1.3839,1.3842,1.386,1.3865,1.3869,0,0,0,0,0,1.3505,1.3541,1.3538,1.3546,1.3594,1.3632,1.3639,1.3645,1.3631,1.365,1.3664,1.3659,1.3739,1.372,1.3729,1.3755,1.3835,1.3838,1.3842,1.3857,1.3864,1.3869,0,0,0,0,0,0,1.3519,1.3544,1.3541,1.3585,1.3607,1.3631,1.3654,1.3651,1.3678,1.3676,1.3684,1.3691,1.3736,1.375,1.3727,1.3805,1.3786,1.3791,1.3794,1.38,1.3805,1.3802,1.3713,0,0,0,0,0,1.3527,1.3554,1.3575,1.3613,1.3623,1.3637,1.3654,1.3657,1.368,1.3689,1.3707,1.3731,1.3761,1.3782,1.3811,1.3861,1.3869,1.3884,1.3889,1.3893,1.3898,1.3928,1.3935,1.3855,1.3855,1.3855,0,0,1.3545,1.3562,1.3578,1.3616,1.3633,1.3663,1.3645,1.3676,1.3699,1.3695,1.3737,1.3751,1.3778,1.3826,1.3848,1.3839,1.3922,1.3897,1.39,1.3904,1.3932,1.394,1.3947,1.3857,1.3857,1.3857,0,0,1.3592,1.3606,1.364,1.3657,1.3682,1.3691,1.37,1.3724,1.3733,1.3775,1.3773,1.3801,1.3853,1.3874,1.3891,1.3947,1.3944,1.3956,1.3983,1.4012,1.4018,1.4024,1.4045,1.4053,1.3961,1.3961,1.3961,0,1.3611,1.3654,1.3658,1.369,1.3708,1.3704,1.3739,1.3756,1.379,1.3803,1.3792,1.3859,1.3877,1.393,1.3944,1.3957,1.3969,1.3953,1.4016,1.4022,1.4027,1.4048,1.4056,1.3963,1.3962,1.3962,1.3962,0,1.3677,1.3707,1.3731,1.3763,1.3783,1.3817,1.3828,1.3849,1.385,1.3861,1.3906,1.3927,1.3962,1.3974,1.3977,1.4029,1.4023,1.4014,1.3995,1.4036,1.4056,1.4064,1.3965,1.3964,1.3964,1.3963,0,0,1.3734,1.3768,1.3777,1.3792,1.3821,1.3845,1.3879,1.3912,1.393,1.3954,1.3984,1.4029,1.4021,1.4041,1.4046,1.4071,1.4116,1.4059,1.406,1.407,1.4177,1.4184,1.4193,1.4114,1.4116,1.4117,1.4175,0,1.3785,1.3844,1.385,1.3904,1.3933,1.393,1.396,1.3982,1.3993,1.4021,1.4034,1.4066,1.4053,1.4065,1.4089,1.4105,1.4138,1.4101,1.4145,1.4146,1.4139,1.4203,1.4211,1.4264,1.4183,1.4184,1.4185,0,1.3852,1.3877,1.3934,1.3959,1.3971,1.3998,1.4029,1.4055,1.4081,1.4087,1.4109,1.4111,1.4149,1.4128,1.4181,1.4156,1.4175,1.4185,1.4188,1.4193,1.4169,1.4211,1.4281,1.429,1.4197,1.4196,1.4195,0,1.389,1.3938,1.3979,1.3992,1.4022,1.4041,1.4055,1.4079,1.4098,1.4126,1.4139,1.4171,1.4189,1.4215,1.4226,1.4209,1.428,1.4259,1.4288,1.4288,1.4304,1.4303,1.4379,1.4314,1.4314,1.4313,1.4313,0,1.3947,1.3982,1.3996,1.4021,1.4061,1.4068,1.4108,1.4121,1.4143,1.4172,1.4172,1.4199,1.4212,1.4242,1.4251,1.4295,1.4303,1.4311,1.4313,1.4312,1.4311,1.4325,1.4322,1.4316,1.4315,1.4315,1.4314,0,1.3997,1.4007,1.4051,1.4076,1.4083,1.4112,1.4134,1.4159,1.417,1.4207,1.4217,1.4235,1.427,1.4284,1.4328,1.4334,1.4385,1.4384,1.4376,1.4377,1.4406,1.4404,1.4495,1.4508,1.4433,1.4433,1.4434,0,1.4033,1.406,1.4087,1.4106,1.412,1.415,1.417,1.4179,1.42,1.4231,1.4253,1.4288,1.4317,1.4375,1.4393,1.4427,1.4427,1.4457,1.4433,1.4431,1.443,1.4428,1.4432,1.4462,1.4463,1.4463,1.4464,0,1.4097,1.4101,1.4128,1.4158,1.4181,1.4206,1.4229,1.4245,1.4258,1.4282,1.4317,1.4339,1.4384,1.442,1.4455,1.4471,1.4471,1.4471,1.448,1.4479,1.4474,1.4479,1.439,1.4469,1.4469,1.4468,1.4468,1.4468,1.4142,1.4166,1.4189,1.422,1.4239,1.4261,1.4287,1.4301,1.433,1.4366,1.437,1.4409,1.4435,1.4482,1.45,1.4532,1.4524,1.4537,1.454,1.4543,1.4546,1.4468,1.4538,1.4538,1.4538,1.4538,1.4538,0,1.4206,1.4221,1.425,1.4282,1.4308,1.4303,1.4329,1.4351,1.4385,1.4409,1.4437,1.4479,1.4514,1.4535,1.4571,1.4592,1.4593,1.4602,1.4601,1.4605,1.455,1.454,1.4601,1.4601,1.4601,1.4601,1.4601,1.4601,1.4243,1.4284,1.4291,1.4342,1.4358,1.4395,1.441,1.4432,1.4451,1.4498,1.4526,1.4539,1.4563,1.46,1.4633,1.4638,1.4652,1.4661,1.4666,1.4615,1.4609,1.4603,1.4593,1.4664,1.4664,1.4719,1.4719,1.472]},{"header":{"parameterUnit":"m.s-1","parameterCategory":1,"la1":30.2991,"la2":30.254,"lo1":-89.0895,"lo2":-89.0444,"dy":0.0017,"dx":0.0017,"nx":28,"ny":28,"refTime":"2023-08-13T09:00:00:Z","depth":0,"parameterNumber":3,"parameterNumberName":"V-component_of_WINDS"},"data":[0,0,0,0,0,0,0,0,0,0,0,0,0,0,0,0,0,0,0,0,0,0,0,0,0,0,0,0,0,0,0,0,0,0,0,0,0,0,0,0,0,0,0,0,0,0,0,0,0,0,0,0,0,0,0,0,0,0,2.8014,2.8015,0,2.8109,2.811,2.8112,2.8169,2.8169,2.8169,2.8169,2.8262,2.8264,2.8266,0,0,0,0,0,0,0,0,0,0,0,0,0,2.7872,2.7874,2.8013,2.8015,2.8016,2.8109,2.8111,2.8112,2.8168,2.8169,2.8169,2.8169,2.8261,2.8264,2.8267,0,0,0,0,0,0,0,0,0,0,0,0,0,2.7947,2.7875,2.8013,2.8056,2.806,2.8109,2.8111,2.8112,2.8168,2.8169,2.8169,2.817,2.826,2.8264,2.8267,2.8279,0,0,2.8277,2.8279,0,0,0,0,0,0,0,0,2.7942,2.7952,2.8048,2.8053,2.8058,2.8128,2.8095,2.8168,2.8168,2.8127,2.8169,2.817,2.8217,2.8224,2.8241,2.8284,2.8288,2.8277,2.8279,2.8281,2.8282,0,0,0,0,0,0,0,2.7937,2.7948,2.8051,2.8049,2.8056,2.8067,2.8078,2.8109,2.8168,2.8131,2.8135,2.8146,2.8219,2.8237,2.8243,2.8289,2.8277,2.828,2.8282,2.8284,2.8344,2.8343,0,0,0,0,0,0,2.7926,2.7943,2.8048,2.8054,2.8,2.8069,2.8082,2.8105,2.8168,2.8178,2.8146,2.8148,2.8231,2.8239,2.8247,2.8263,2.8281,2.8284,2.8286,2.8344,2.8343,2.8343,0,0,0,0,0,0,2.7923,2.7935,2.8044,2.8,2.8015,2.8071,2.8097,2.8106,2.8124,2.8179,2.819,2.8153,2.8232,2.8242,2.827,2.8267,2.8285,2.8288,2.8344,2.8344,2.8343,2.8298,0,0,0,0,0,0,2.7919,2.7934,2.7941,2.8,2.8017,2.8069,2.8097,2.8108,2.8131,2.8135,2.8189,2.8199,2.8233,2.8265,2.8274,2.8272,2.8291,2.8345,2.8344,2.8343,2.83,2.8296,2.8293,0,0,0,0,0,2.7913,2.7924,2.7941,2.7954,2.8028,2.8069,2.8078,2.8119,2.813,2.8137,2.8171,2.8197,2.8266,2.8268,2.8278,2.8277,2.8345,2.8344,2.8344,2.8302,2.8297,2.8293,0,0,0,0,0,0,2.7863,2.7933,2.7952,2.7983,2.8019,2.8078,2.8088,2.8113,2.8146,2.8149,2.8196,2.8208,2.8231,2.8257,2.8257,2.8291,2.8308,2.8309,2.8273,2.8269,2.8265,2.8258,2.8294,0,0,0,0,0,2.7855,2.7885,2.7943,2.7964,2.7982,2.8031,2.8051,2.8079,2.8118,2.8133,2.817,2.8205,2.8235,2.8253,2.8284,2.8304,2.8315,2.8308,2.8304,2.8301,2.8301,2.8311,2.8308,2.834,2.834,2.834,0,0,2.784,2.7882,2.7897,2.7955,2.7987,2.8014,2.8044,2.8072,2.8092,2.8137,2.8167,2.8194,2.8236,2.826,2.8272,2.8282,2.8295,2.83,2.8297,2.8299,2.831,2.8306,2.8304,2.8339,2.834,2.834,0,0,2.7825,2.7861,2.7882,2.7912,2.796,2.7992,2.7996,2.8051,2.8071,2.8102,2.8136,2.8158,2.8209,2.8236,2.8257,2.8249,2.8273,2.8257,2.8237,2.8246,2.8244,2.8241,2.8236,2.8234,2.8257,2.8257,2.8257,0,2.78,2.7844,2.7888,2.7914,2.7937,2.7979,2.7998,2.8025,2.8079,2.8093,2.8104,2.8166,2.8198,2.8227,2.8225,2.8241,2.8245,2.8252,2.8241,2.8239,2.8238,2.8233,2.8232,2.8255,2.8255,2.8255,2.8256,0,2.7809,2.7839,2.7849,2.7901,2.7925,2.7947,2.7991,2.801,2.8034,2.8064,2.8092,2.8131,2.8169,2.8178,2.8203,2.821,2.8214,2.8232,2.8251,2.8232,2.8228,2.8227,2.8252,2.8252,2.8253,2.8254,0,0,2.7769,2.7842,2.7845,2.7868,2.7922,2.7944,2.7966,2.8004,2.8017,2.8052,2.807,2.811,2.8126,2.8149,2.8177,2.8184,2.8172,2.8201,2.8203,2.8193,2.818,2.8165,2.8163,2.8188,2.8188,2.8188,2.8175,0,2.7761,2.7806,2.7844,2.7872,2.7898,2.7937,2.7955,2.7989,2.8016,2.804,2.807,2.8097,2.8117,2.8131,2.814,2.8172,2.817,2.8173,2.8203,2.8203,2.8191,2.8161,2.8147,2.8134,2.8175,2.8174,2.8174,0,2.776,2.7793,2.7825,2.7873,2.7885,2.7901,2.7937,2.796,2.7997,2.8016,2.804,2.8069,2.809,2.8106,2.8135,2.8136,2.815,2.8166,2.8167,2.8171,2.8187,2.8163,2.8131,2.8128,2.8173,2.8173,2.8173,0,2.7725,2.7778,2.7803,2.7821,2.7878,2.7888,2.7912,2.7949,2.7968,2.7998,2.801,2.8042,2.8059,2.8082,2.8117,2.8125,2.8141,2.816,2.8155,2.8154,2.8157,2.8156,2.8125,2.8167,2.8167,2.8167,2.8167,0,2.7713,2.7731,2.7787,2.7803,2.7821,2.7863,2.788,2.7907,2.7939,2.7958,2.7993,2.8009,2.8054,2.8075,2.8102,2.812,2.8128,2.8142,2.8149,2.8139,2.8137,2.8148,2.815,2.8167,2.8167,2.8167,2.8167,0,2.7679,2.7718,2.7747,2.7797,2.781,2.7822,2.7864,2.7878,2.7907,2.793,2.7937,2.7981,2.8007,2.8044,2.8081,2.8099,2.8112,2.8124,2.81,2.8104,2.8097,2.8096,2.8071,2.8069,2.8113,2.8113,2.8112,0,2.7669,2.7683,2.7734,2.7749,2.7772,2.7797,2.7816,2.7856,2.7874,2.7915,2.7923,2.7952,2.7977,2.8016,2.805,2.8078,2.8089,2.8079,2.8094,2.8082,2.8087,2.8086,2.8086,2.8075,2.8074,2.8074,2.8073,0,2.7646,2.7663,2.7691,2.7723,2.7745,2.7773,2.7802,2.7811,2.7857,2.7875,2.7902,2.7921,2.7958,2.7985,2.8017,2.8039,2.8062,2.8068,2.8068,2.8057,2.8042,2.8048,2.8089,2.8068,2.8069,2.8069,2.8069,2.807,2.7623,2.7635,2.7673,2.7701,2.7726,2.7751,2.7766,2.7796,2.782,2.7854,2.7875,2.79,2.7932,2.7977,2.7997,2.8016,2.8026,2.8027,2.8026,2.8026,2.8021,2.804,2.8022,2.8022,2.8022,2.8022,2.8023,0,2.76,2.7625,2.765,2.7689,2.771,2.7731,2.7762,2.7778,2.78,2.7829,2.7852,2.7881,2.7906,2.7941,2.7968,2.7976,2.7987,2.7981,2.7981,2.7985,2.8012,2.8008,2.7972,2.7972,2.7972,2.7972,2.7972,2.7972,2.7591,2.7613,2.7634,2.7668,2.7692,2.7718,2.7734,2.7756,2.7778,2.781,2.7831,2.7853,2.7883,2.7912,2.7935,2.7944,2.7952,2.7942,2.7954,2.7979,2.7983,2.7988,2.7985,2.7944,2.7944,2.7926,2.7926,2.7926]}]]